Ignacio, CO

9:18 AM MST on January 17, 2017 (GMT -0700)
Durango-La Plata County

Weather History for KDRO - August, 2014

Change the Weather History Date:

Sunday, August 17, 2014

  Actual Average Record
Temperature  
Mean Temperature 70 °F 67 °F  
Max Temperature 89 °F 83 °F 95 °F (1986)
Min Temperature 51 °F 52 °F 41 °F (1985)
Degree Days  
Heating Degree Days 0 0  
Month to date heating degree days 0 0  
Since 1 June heating degree days 88 125  
Since 1 July heating degree days 0 10  
Cooling Degree Days 5 3  
Month to date cooling degree days 56 63  
Year to date cooling degree days 280 214  
Since 1 June cooling degree days 275 213  
Growing Degree Days 20 (Base 50)    
Moisture  
Dew Point 42 °F    
Average Humidity 49    
Maximum Humidity 83    
Minimum Humidity 14    
Precipitation  
Precipitation 0.00 in 0.06 in 0.34 in (1977)
Month to date precipitation 1.49 1.26  
Year to date precipitation 5.19 9.05  
Sea Level Pressure  
Sea Level Pressure 30.01 in    
Wind  
Wind Speed 5 mph (NNE)    
Max Wind Speed 17 mph    
Max Gust Speed 26 mph    
Visibility 10 miles    
Events      
T = Trace of Precipitation, MM = Missing Value Source: NWS Daily Summary

Daily Weather History Graph

Daily Weather History Graph

Search for Another Location

Airport or City:

Trip Planner

Search our weather history database for the weather conditions in past years. The results will help you decide how hot, cold, wet, or windy it might be!

Date:

Astronomy

Aug. 17, 2014 Rise Set
Actual Time 6:29 AM MDT 8:00 PM MDT
Civil Twilight 6:01 AM MDT 8:27 PM MDT
Nautical Twilight 5:28 AM MDT 9:00 PM MDT
Astronomical Twilight 4:53 AM MDT 9:35 PM MDT
Moon No Moon Rise 2:07 PM MDT
Length of Visible Light 14h 25m
Length of Day
13h 30m
Waning Gibbous, 48% of the Moon is Illuminated
Aug 17
Waning Gibbous
Aug 25
New
Sep 2
First Quarter
Sep 8
Full
Sep 15
Last Quarter

Hourly Weather History & Observations

Time (MDT) Temp. Dew Point Humidity Pressure Visibility Wind Dir Wind Speed Gust Speed Precip Events Conditions
1:53 AM 57.0 °F 48.0 °F 72% 30.02 in 10.0 mi East 3.5 mph - N/A   Clear
2:53 AM 55.9 °F 48.0 °F 75% 30.02 in 10.0 mi North 5.8 mph - N/A   Clear
3:53 AM 54.0 °F 46.9 °F 77% 30.06 in 10.0 mi Calm Calm - N/A   Clear
4:53 AM 52.0 °F 46.9 °F 83% 30.06 in 10.0 mi NE 3.5 mph - N/A   Clear
5:53 AM 54.0 °F 44.1 °F 69% 30.07 in 10.0 mi NNE 3.5 mph - N/A   Clear
6:53 AM 53.1 °F 43.0 °F 69% 30.14 in 10.0 mi NNW 6.9 mph - N/A   Clear
7:53 AM 57.0 °F 46.9 °F 69% 30.10 in 10.0 mi Calm Calm - N/A   Clear
8:53 AM 66.0 °F 44.1 °F 45% 30.10 in 10.0 mi Calm Calm - N/A   Clear
9:53 AM 73.0 °F 45.0 °F 37% 30.08 in 10.0 mi NNE 3.5 mph - N/A   Clear
10:53 AM 77.0 °F 44.1 °F 31% 30.07 in 10.0 mi Variable 3.5 mph - N/A   Clear
11:53 AM 80.1 °F 44.1 °F 28% 30.06 in 10.0 mi Calm Calm - N/A   Clear
12:53 PM 82.9 °F 35.1 °F 18% 30.02 in 10.0 mi SW 4.6 mph - N/A   Clear
1:53 PM 84.9 °F 39.0 °F 20% 30.00 in 10.0 mi Variable 3.5 mph - N/A   Clear
2:53 PM 86.0 °F 36.0 °F 17% 29.97 in 10.0 mi Calm Calm - N/A   Partly Cloudy
3:53 PM 88.0 °F 36.0 °F 16% 29.94 in 10.0 mi Variable 4.6 mph - N/A   Clear
4:53 PM 89.1 °F 33.1 °F 14% 29.92 in 10.0 mi SSW 11.5 mph - N/A   Scattered Clouds
5:53 PM 88.0 °F 33.1 °F 14% 29.90 in 10.0 mi West 9.2 mph - N/A   Partly Cloudy
6:53 PM 84.9 °F 35.1 °F 17% 29.92 in 10.0 mi Variable 4.6 mph - N/A   Clear
7:53 PM 80.1 °F 42.1 °F 26% 29.93 in 10.0 mi NNE 3.5 mph - N/A   Clear
8:53 PM 75.9 °F 39.9 °F 27% 29.95 in 10.0 mi ESE 12.7 mph - N/A   Clear
9:53 PM 73.0 °F 41.0 °F 31% 29.97 in 10.0 mi ESE 10.4 mph - N/A   Clear
10:53 PM 66.9 °F 44.1 °F 44% 29.97 in 10.0 mi ENE 9.2 mph - N/A   Mostly Cloudy
11:53 PM 66.9 °F 43.0 °F 42% 29.96 in 10.0 mi North 3.5 mph - N/A   Scattered Clouds